Location: Nashville
(36.1660°N, 86.7840°W)
Time: 01:28:12
(UTC-05:00)

Vanguard 2 - Pass Details

Date: 30 June 2022
Orbit: 552 x 2934 km, 32.9° (Epoch: 10 August)

Event Time Altitude Azimuth Distance (km) Brightness Sun altitude
Rises 20:57:12 0° 259° (W) 4,564 12.2 -9.0°
Reaches altitude 10° 21:00:54 10° 257° (WSW) 3,197 11.3 -9.6°
Maximum altitude 21:08:08 63° 178° (S) 943 7.8 -10.8°
Enters shadow 21:12:38 11° 98° (E) 2,027 9.2 -11.5°
